Content
SEND FEEDBACK

Daily
Averages
Monthly
Summary
Italy

TURIN, ITALY


Home > Europe > Italy
Elevation: 941 feet     Latitude: 45 13N     Longitude: 007 39E

WEATHER
 
SELECT A DAY
Number of Records: 303,683;   Date Range: 7/1/96 - 7/11/14
 
SHARE

PRINT THIS DATA

[ ← Previous Day ]
WEATHER ALMANAC - JANUARY 3, 2013
[ Next Day → ]
[ °C ]   °F
Weather ElementAverageHighLow
Temperature37.2 °F50 °F (3:20 pm)30.2 °F (2:20 am)
Dewpoint28.5 °F32 °F (1:50 pm)24.8 °F (5:20 am)
Humidity72.4 %93 % (12:50 am)46 % (2:50 pm)
Barometer30.52 in30.57 in (9:20 am)30.45 in (1:50 am)
Wind Speed4.6 mph8.1 mph (1:20 pm)
Weather ElementAverage
Visibility4.8 mi
Wind DirectionSSW (203.8 °)

Weather ElementTotal
Precipitation---
Heating Degree Days24.9 (Base 65)
Averaged from 47 records on January 3, 2013
WEATHER CONDITIONS BREAKOUT
WIND DIRECTION BREAKOUT
WEATHER BY HOUR - JANUARY 3, 2013
[ °C ]   °F
Local TimeTemperatureDewpointHumidityBarometerVisibilityWind DirectionWind SpeedGust SpeedPrecipitationEventsConditions
12:50 AM32.0 °F30.2 °F93 %30.48 in2.5 miWNW (300°)5.8 mphMist
1:20 AM32.0 °F30.2 °F93 %30.48 in2.5 miWNW (300°)5.8 mphMist
1:50 AM32.0 °F28.4 °F87 %30.45 in3.7 miNW (310°)5.8 mph
2:20 AM30.2 °F26.6 °F86 %30.48 in5.0 miSouth (180°)4.6 mph
2:50 AM30.2 °F28.4 °F93 %30.48 in3.7 miWest (260°)3.5 mph
3:20 AM30.2 °F28.4 °F93 %30.48 in3.7 miWest (270°)5.8 mph
3:50 AM30.2 °F26.6 °F86 %30.51 inWNW (300°)5.8 mphClear
4:20 AM30.2 °F26.6 °F86 %30.51 inWest (280°)6.9 mphClear
4:50 AM32.0 °F26.6 °F80 %30.51 inWest (280°)6.9 mphClear
5:20 AM30.2 °F24.8 °F80 %30.51 inWest (280°)6.9 mphClear
5:50 AM30.2 °F26.6 °F86 %30.51 inWest (280°)5.8 mphClear
6:20 AM32.0 °F24.8 °F75 %30.51 inNW (320°)5.8 mphClear
6:50 AM32.0 °F24.8 °F75 %30.51 inWest (280°)4.6 mphClear
7:20 AM32.0 °F24.8 °F75 %30.54 inWest (280°)5.8 mphClear
7:50 AM30.2 °F24.8 °F80 %30.54 inNW (310°)5.8 mphClear
8:20 AM30.2 °F24.8 °F80 %30.54 inWNW (300°)3.5 mphClear
8:50 AM30.2 °F24.8 °F80 %30.54 inNW (320°)4.6 mphClear
9:20 AM30.2 °F24.8 °F80 %30.57 inVariable1.2 mphClear
9:50 AM33.8 °F28.4 °F81 %30.57 in6.2 miVariable1.2 mph
10:20 AM35.6 °F28.4 °F75 %30.54 in6.2 miSSW (210°)6.9 mph
10:50 AM42.8 °F30.2 °F61 %30.57 in6.2 miVariable1.2 mph
11:20 AM42.8 °F30.2 °F61 %30.54 in6.2 miVariable2.3 mph
11:50 AM41.0 °F30.2 °F65 %30.57 in6.2 miVariable2.3 mph
12:20 PM44.6 °F30.2 °F57 %30.54 in6.2 miWNW (300°)3.5 mph
12:50 PM46.4 °F28.4 °F50 %30.51 in6.2 miSW (230°)5.8 mph
1:20 PM48.2 °F30.2 °F50 %30.54 in4.3 miSouth (190°)8.1 mph
1:50 PM48.2 °F32.0 °F54 %30.54 in4.3 miSouth (180°)6.9 mph
2:20 PM48.2 °F30.2 °F50 %30.51 in4.3 miSouth (180°)3.5 mph
2:50 PM48.2 °F28.4 °F46 %30.48 inSouth (170°)4.6 mphClear
3:20 PM50.0 °F30.2 °F47 %30.51 inVariable1.2 mphClear
3:50 PM50.0 °F30.2 °F47 %30.51 inVariable1.2 mphClear
4:20 PM48.2 °F32.0 °F54 %30.51 inSouth (190°)4.6 mphClear
4:50 PM46.4 °F30.2 °F53 %30.51 inSSW (210°)3.5 mphClear
5:20 PM44.6 °F30.2 °F57 %30.51 inVariable1.2 mphClear
5:50 PM41.0 °F32.0 °F70 %30.51 inNE (40°)4.6 mphClear
6:20 PM39.2 °F32.0 °F75 %30.51 inNNE (30°)3.5 mphClear
6:50 PM37.4 °F30.2 °F75 %30.51 inWNW (300°)5.8 mphClear
7:20 PM37.4 °F30.2 °F75 %30.51 inWNW (300°)6.9 mphClear
7:50 PM37.4 °F30.2 °F75 %30.51 inNW (310°)8.1 mphClear
8:20 PM35.6 °F30.2 °F81 %30.51 inWest (270°)4.6 mphClear
8:50 PM35.6 °F28.4 °F75 %30.51 inWest (280°)5.8 mphClear
9:20 PM35.6 °F28.4 °F75 %30.51 inNW (310°)5.8 mphClear
9:50 PM37.4 °F28.4 °F70 %30.51 inNW (310°)4.6 mphClear
10:20 PM33.8 °F28.4 °F81 %30.51 inVariable2.3 mphClear
10:50 PM33.8 °F28.4 °F81 %30.51 inWest (260°)3.5 mphClear
11:20 PM33.8 °F28.4 °F81 %30.51 inWSW (240°)5.8 mphClear
11:50 PM35.6 °F28.4 °F75 %30.51 inSW (220°)3.5 mphClear
Hourly data recorded from LIMF, located miles away from Turin, Italy







STORIES FROM OUR PARTNERS